RH
30 29 27 24 23 22 20 18 16 14 12 11 11 12 12 11 11 11 11 11 11 11 12 12 13 14 15 17 18 18 19 20 20 21 22 23 23 23 23 22 22 21 20 18 17 16 15 15 15 16 18 22 25 25 22 18 16 14 14 13 12 11 11 11 11 10 10 10 10 10 9 9 9 9 8 8 8 8 8 8 8 8 9 9 9 9 9 9 10 10 9 9 9 9 9 10 15 20 25 28 29 30 30
30 30 29 25 22 20 18 16 14 13 12 12 13 13 13 13 12 12 12 13 13 13 13 13 13 14 15 15 16 16 17 17 18 19 20 20 20 20 20 20 20 19 18 17 15 14 13 13 13 13 14 17 18 19 19 17 15 13 12 11 11 10 10 10 9 9 9 8 8 8 8 7 7 7 7 7 7 7 8 8 8 8 9 9 9 9 9 9 10 10 10 10 9 9 9 11 15 20 24 26 28 29 29
31 31 30 24 21 19 17 15 14 13 13 14 14 14 14 14 14 14 14 14 13 13 13 13 13 13 13 14 14 15 15 15 15 16 17 17 18 18 18 18 18 17 16 15 14 13 12 11 11 11 12 12 13 14 15 15 14 13 12 11 11 11 10 10 9 9 8 8 8 7 7 7 7 7 7 7 7 7 7 8 8 8 8 9 9 9 9 9 10 10 10 10 10 10 10 11 13 18 22 24 26 27 27
29 29 28 23 20 18 17 15 15 15 15 15 15 15 15 14 14 14 14 14 13 13 13 12 11 11 11 12 12 13 13 13 14 14 14 14 15 15 15 16 15 15 14 14 13 12 12 11 11 11 11 11 12 12 13 13 13 13 13 13 13 12 12 11 11 10 10 10 9 9 8 8 8 8 7 7 7 7 7 7 7 8 8 8 9 9 9 10 10 10 10 10 10 10 10 10 12 15 19 21 22 23 23
24 24 23 21 20 18 17 16 16 16 16 16 16 15 15 14 14 14 13 12 12 11 11 10 9 9 9 9 10 11 11 12 12 12 12 12 13 13 14 14 14 14 14 14 14 13 13 12 12 12 12 12 13 13 14 14 14 14 15 15 14 14 13 13 13 13 13 12 12 12 11 11 11 11 10 10 9 9 9 8 8 8 8 8 8 8 9 9 10 10 10 10 11 11 11 10 11 13 15 18 20 21 21
20 20 20 19 18 17 16 16 16 16 16 15 14 14 13 12 11 11 10 10 9 9 8 8 8 8 8 8 9 9 10 10 11 11 11 12 12 13 14 14 15 15 15 16 15 15 15 14 14 14 14 15 15 15 15 16 16 16 16 16 16 15 15 15 15 15 15 15 15 15 14 14 14 14 14 13 13 13 12 11 11 10 10 9 9 9 9 9 9 9 10 11 11 11 12 12 12 12 13 16 18 20 20
18 17 17 17 16 15 14 14 14 13 12 12 11 10 10 10 9 9 9 8 8 8 8 9 9 9 9 9 10 10 11 11 12 12 13 13 14 15 15 15 16 17 17 17 17 16 16 16 17 17 17 17 17 17 17 17 17 17 17 17 17 17 17 17 17 17 17 17 17 17 17 16 16 16 16 16 16 16 15 15 15 14 13 13 12 11 11 11 10 10 10 11 11 12 12 13 13 13 14 15 16 18 20
14 14 14 13 13 12 12 12 12 11 11 11 11 11 11 11 11 11 11 10 11 11 11 11 11 11 12 12 13 13 14 14 15 15 15 16 16 17 17 17 18 18 18 19 19 19 19 19 19 20 20 19 19 19 19 19 19 19 18 18 18 18 18 19 19 19 18 18 18 18 18 18 18 18 18 18 17 17 17 17 17 17 16 16 16 15 15 14 14 14 13 13 13 13 13 13 13 14 14 15 16 17 19
12 12 12 12 12 12 12 13 13 13 13 13 13 13 14 14 14 13 13 13 13 13 14 14 14 14 15 15 15 16 16 16 17 17 17 18 18 18 19 19 19 20 20 21 21 21 21 21 21 21 21 21 21 21 20 20 20 20 19 19 19 19 19 19 19 19 19 19 19 19 19 19 19 19 19 19 19 18 18 18 18 18 18 18 18 18 18 18 18 18 18 17 17 16 16 16 15 15 15 15 15 16 17
13 13 13 13 14 14 14 15 15 15 15 15 15 15 16 16 15 15 15 15 15 15 15 16 16 16 16 17 17 17 17 18 18 18 18 19 19 19 20 20 21 21 22 22 23 22 22 22 22 22 22 22 22 22 21 21 21 20 20 20 20 20 20 20 20 20 20 20 20 20 20 20 20 20 20 19 19 19 19 19 19 19 19 19 19 19 20 20 20 21 21 21 21 20 20 20 19 18 17 17 16 16 16
14 15 15 15 15 16 16 17 17 17 17 17 17 17 17 17 17 17 17 17 17 17 17 17 17 17 17 18 18 18 18 18 19 19 19 19 20 20 20 21 21 22 22 23 23 23 23 22 22 22 22 22 22 22 22 21 21 21 21 20 20 20 20 20 20 20 20 20 20 20 20 20 20 20 20 20 20 20 20 20 20 20 20 20 20 20 21 21 22 22 22 23 23 23 23 23 23 22 22 20 19 18 18
16 16 16 17 17 17 18 18 18 18 18 18 18 18 18 18 18 17 17 17 17 17 17 18 18 18 18 18 19 19 19 19 19 20 20 20 20 20 21 21 22 22 22 22 22 22 22 22 22 22 22 22 22 22 22 22 21 21 21 21 21 21 21 20 20 20 20 20 20 20 20 20 20 20 21 21 21 21 21 21 21 22 22 22 22 22 23 23 23 23 23 24 24 24 24 24 24 24 24 24 23 22 21
18 18 18 18 19 19 19 19 19 19 19 19 19 19 19 19 19 19 18 18 18 18 18 18 18 18 18 19 19 19 20 20 20 20 21 20 21 21 21 21 22 22 22 22 22 22 22 22 22 22 22 22 22 22 22 22 21 21 21 21 21 21 21 21 21 20 20 20 20 20 20 20 20 21 21 21 21 21 21 21 22 22 23 23 24 24 24 24 24 24 24 25 25 25 25 25 25 25 25 25 25 24 24
19 19 20 20 20 21 21 21 21 21 21 21 21 21 21 20 20 20 20 20 19 20 19 19 19 19 19 19 20 20 20 21 21 21 21 21 21 21 21 22 22 22 22 22 22 22 21 21 21 21 22 22 22 22 22 22 21 21 21 20 20 20 20 20 20 20 20 20 20 20 20 21 21 21 21 21 22 22 22 22 22 23 23 24 24 25 25 25 26 26 26 26 26 26 26 26 25 26 26 26 26 26 25
20 20 21 21 21 22 22 22 22 22 22 22 22 22 22 22 22 21 21 21 21 21 21 21 21 21 21 21 21 21 21 21 22 22 22 22 22 22 22 22 22 22 22 22 22 22 22 22 21 21 21 21 21 21 21 21 21 21 21 21 20 20 20 20 20 20 20 20 20 21 21 22 22 22 23 23 23 23 23 24 24 24 24 25 25 26 26 26 27 27 27 27 27 26 26 26 26 26 26 26 26 26 26
21 21 21 22 22 23 23 23 23 23 23 23 23 23 23 23 23 22 23 22 22 22 22 22 22 22 22 22 22 22 22 22 22 22 23 23 23 22 23 23 23 23 23 23 23 22 22 22 22 22 22 21 21 21 21 21 21 21 21 21 21 21 20 20 20 20 20 20 21 21 22 23 24 24 24 25 25 25 25 26 26 26 26 26 26 27 27 27 28 28 28 28 28 27 27 26 26 26 26 26 26 27 27
22 22 22 23 23 23 23 23 23 23 23 23 23 23 23 23 23 23 23 23 23 23 23 23 23 23 23 22 22 22 22 22 22 22 22 22 22 22 23 23 24 24 24 23 23 23 23 22 22 22 22 21 21 21 21 21 20 20 20 21 21 22 21 21 21 21 21 21 22 22 23 24 25 25 26 26 26 27 27 28 28 28 28 28 28 28 28 28 29 29 29 29 28 28 27 27 27 27 27 27 27 27 28
22 23 23 23 24 24 24 24 24 24 24 24 24 24 24 24 24 24 24 24 24 24 23 24 23 23 23 23 23 23 22 22 23 22 22 22 22 22 22 23 23 24 24 24 23 23 23 22 22 22 22 22 21 21 21 21 21 21 21 21 22 22 22 22 22 22 22 23 23 24 24 25 25 26 26 27 27 28 28 29 30 30 31 31 31 30 30 30 30 30 30 29 29 28 28 28 28 28 28 27 27 27 28
22 23 23 23 24 24 24 24 24 24 24 25 25 25 25 25 25 25 24 24 24 24 24 24 24 24 24 23 23 23 23 23 23 23 23 23 22 22 22 23 23 23 23 24 24 23 23 23 22 22 22 22 22 22 22 22 22 22 23 23 24 24 24 24 24 24 24 24 25 25 25 26 26 27 27 27 28 29 30 30 31 32 32 32 33 33 33 33 33 32 31 31 30 29 29 28 28 28 28 28 28 28 28
22 23 23 23 24 24 24 24 25 25 25 25 25 25 26 25 26 25 25 25 25 25 25 24 24 24 24 24 24 23 23 23 23 24 23 23 23 23 23 23 23 23 23 24 24 24 24 23 22 22 23 23 23 23 23 23 23 24 24 25 25 26 25 25 25 26 26 26 26 27 27 27 27 28 28 29 29 30 31 32 32 33 33 34 34 34 35 35 35 34 34 33 32 31 30 29 29 29 29 29 29 29 29
23 23 23 23 24 24 24 24 24 25 25 25 25 25 26 26 26 26 26 26 26 25 25 25 25 25 24 24 24 24 24 24 24 24 24 24 24 24 23 23 23 23 24 24 24 24 23 22 22 22 23 24 24 24 24 24 25 25 25 25 26 26 26 26 26 26 26 27 27 27 28 28 28 29 30 30 31 32 32 33 34 34 34 34 35 35 35 36 36 36 36 35 34 33 32 31 30 30 30 30 30 30 30
23 23 23 23 24 24 24 24 24 24 25 25 25 25 25 25 25 26 26 25 26 25 25 25 25 24 25 24 24 24 24 24 24 25 25 25 25 24 24 24 24 24 25 25 24 24 23 22 22 22 23 24 24 24 25 25 25 25 26 26 26 26 26 26 26 26 26 26 27 27 27 28 29 29 30 31 32 32 33 34 34 35 35 35 35 35 35 35 36 36 36 36 35 34 34 32 31 31 30 31 31 31 31
24 24 24 24 24 24 24 24 24 24 25 25 25 25 25 25 25 25 26 25 25 25 25 25 24 24 25 24 24 24 24 25 25 25 26 25 25 25 25 25 25 25 26 26 26 25 23 23 23 23 23 23 24 25 25 25 25 25 25 26 26 26 26 26 26 26 26 26 26 27 27 28 28 29 30 31 31 32 33 34 34 35 35 35 35 35 35 35 35 35 36 36 36 35 35 34 33 32 32 32 32 32 33
24 24 24 24 25 25 25 25 25 25 25 25 25 25 25 25 25 25 25 25 25 25 25 25 25 25 25 25 25 25 25 25 25 25 26 26 26 26 25 25 26 26 27 27 26 25 24 24 23 23 23 23 23 24 25 25 25 25 26 26 26 26 26 26 26 26 26 27 26 27 27 27 28 29 29 30 31 32 33 33 34 34 35 35 35 35 35 35 35 35 35 35 36 36 37 36 36 35 34 33 33 34 34
25 25 25 25 25 25 25 25 26 26 25 25 25 25 25 25 25 25 25 25 25 25 25 25 25 25 25 26 26 26 26 26 26 26 26 27 26 26 26 26 26 26 27 27 26 26 25 24 23 23 23 23 23 23 24 25 26 26 26 26 26 26 26 26 26 26 26 26 27 27 28 28 29 29 30 31 31 32 33 33 34 35 35 35 36 36 35 35 35 35 35 35 36 37 38 38 38 37 36 35 35 35 34
27 26 26 26 26 26 26 26 26 26 26 26 26 26 26 26 26 26 26 26 26 26 26 26 26 26 26 26 26 26 27 27 27 27 26 26 27 27 26 26 26 26 26 26 26 25 25 24 24 23 23 22 22 23 24 25 26 26 26 26 26 26 26 26 27 26 26 26 27 27 28 28 29 30 30 31 32 32 33 34 34 35 35 36 36 35 35 35 35 34 35 35 36 37 39 40 40 40 38 37 37 36 36
28 27 27 26 26 26 26 26 27 27 27 27 27 27 27 26 26 26 26 27 26 26 26 26 26 26 26 26 26 26 27 27 27 27 26 26 26 26 26 26 26 26 26 26 26 25 25 24 24 23 23 23 23 23 24 25 25 26 26 26 26 26 26 26 27 26 27 27 27 27 27 28 28 29 30 31 32 32 33 34 35 35 36 36 36 35 35 34 34 34 34 35 36 38 39 41 42 42 41 40 39 38 38
28 28 28 27 27 27 27 27 27 27 27 27 27 27 28 27 27 27 27 27 27 27 27 27 27 27 26 26 26 26 26 26 26 26 26 26 26 26 26 25 25 26 26 26 26 26 26 25 25 24 24 24 24 24 24 25 25 26 26 26 26 26 26 26 26 26 26 26 27 27 27 27 28 29 30 31 32 33 34 35 35 36 37 36 36 35 34 34 33 34 34 36 37 38 40 42 43 43 43 42 42 41 41
28 28 28 28 28 28 28 28 28 28 28 28 28 28 27 27 27 27 27 27 27 27 26 26 26 26 26 26 26 26 26 26 26 25 25 25 25 25 25 25 25 25 25 26 26 26 26 26 26 25 25 25 25 25 25 25 25 26 26 26 26 26 26 26 26 26 26 26 26 26 27 27 28 29 30 31 32 33 34 35 36 36 36 36 36 35 34 33 33 34 35 36 37 39 41 42 44 44 44 44 44 44 44
28 28 28 28 28 28 28 28 28 28 28 28 28 28 27 27 27 27 27 27 27 26 26 25 25 25 26 26 26 26 25 25 25 25 25 25 25 25 25 25 25 25 25 25 26 26 26 27 26 26 25 25 25 24 24 24 25 25 25 25 26 25 25 25 25 25 25 25 25 26 26 27 27 28 29 30 32 33 34 35 36 36 36 36 35 35 34 34 34 34 35 37 38 39 41 42 44 45 45 45 46 46 46
29 29 29 29 29 29 29 29 29 29 29 29 29 28 27 27 26 26 26 27 27 27 26 25 25 25 25 25 25 25 25 25 25 25 25 25 25 25 25 25 25 25 25 25 26 26 26 27 26 26 25 24 24 23 23 23 23 24 24 24 24 24 24 24 24 24 25 25 25 25 26 26 26 27 28 29 31 33 34 35 35 35 35 35 35 34 34 34 35 36 37 38 39 40 41 42 44 45 46 46 47 48 48
32 32 32 32 32 31 31 31 30 30 30 30 30 30 29 28 27 27 26 27 27 27 27 26 26 25 25 25 25 25 25 25 25 25 25 25 25 25 25 25 25 25 25 25 25 25 25 25 25 25 24 23 23 22 22 22 22 22 22 23 23 23 23 23 23 23 23 24 24 24 25 25 26 27 27 29 31 32 34 34 35 34 34 34 34 35 35 36 36 37 38 39 40 41 42 43 44 45 47 48 49 49 49
36 36 36 35 34 34 33 33 33 32 32 31 31 31 30 29 29 28 27 27 27 27 27 27 26 26 26 25 26 26 26 25 25 25 25 25 25 24 25 25 25 25 25 24 24 24 23 23 23 23 23 22 21 21 21 20 20 20 21 21 21 22 22 22 22 22 22 23 23 23 24 24 25 26 28 29 31 33 34 34 34 34 34 34 34 35 36 36 37 38 39 40 41 42 43 44 45 47 49 50 51 51 51
39 39 39 38 37 36 36 36 35 34 33 32 31 32 32 31 30 29 28 28 28 28 28 28 27 27 26 26 26 26 25 25 24 24 24 24 24 24 24 24 24 23 23 23 22 22 22 21 21 21 22 21 21 21 20 20 20 20 20 20 20 21 20 21 21 21 21 22 22 23 23 24 25 26 28 30 32 34 34 34 34 33 33 34 34 35 36 37 38 39 40 41 42 43 44 45 47 49 51 52 53 53 52
41 41 40 40 39 39 38 38 37 36 34 33 32 32 32 32 31 30 29 29 29 29 29 29 28 27 27 26 26 25 24 24 24 23 23 23 23 22 22 22 22 21 21 21 21 21 21 21 20 21 21 21 21 21 20 20 20 20 20 19 19 19 20 20 20 20 21 21 22 22 23 24 26 27 29 32 34 35 35 34 33 33 33 34 35 36 37 38 39 40 41 41 42 44 45 47 48 50 52 53 54 54 53
41 41 41 41 41 40 40 39 38 37 36 34 33 33 33 32 31 30 29 29 30 30 30 30 29 28 27 26 25 24 23 23 23 22 22 21 21 21 21 20 20 20 20 20 20 20 21 21 21 21 21 21 21 21 20 20 20 20 20 19 19 19 19 19 20 20 21 21 22 22 23 24 26 28 31 33 35 35 35 34 33 33 33 34 35 36 37 38 39 40 40 41 42 43 45 47 49 50 52 53 54 54 54
41 41 41 41 41 41 40 40 39 38 37 35 34 33 33 32 31 30 30 30 31 31 32 31 30 28 27 26 25 24 23 22 22 21 21 20 20 20 20 20 20 20 20 21 21 21 21 22 22 21 21 21 21 21 21 20 20 20 20 19 19 19 19 19 20 20 21 21 22 23 24 26 27 30 32 34 35 35 34 33 33 33 33 34 35 37 38 38 39 40 40 40 41 42 45 47 49 50 52 53 54 54 54
41 41 41 41 41 41 41 41 40 39 38 36 35 34 34 32 32 31 30 31 32 33 32 31 30 28 27 25 24 23 22 21 21 20 20 20 20 20 21 21 22 22 22 23 23 23 23 23 23 22 22 22 21 21 21 21 21 20 20 20 20 20 20 20 20 20 21 21 22 23 25 27 30 32 34 35 35 34 33 33 32 32 33 35 36 37 38 39 39 39 40 40 40 41 44 47 49 50 51 53 54 54 54
41 41 41 41 41 41 41 41 40 39 38 37 36 35 35 33 32 31 31 32 33 33 33 31 30 29 27 26 24 23 22 22 21 21 21 21 21 22 22 23 23 24 24 24 25 25 25 25 25 25 24 24 24 23 23 22 22 22 21 21 21 21 21 21 21 21 22 22 23 25 27 29 32 34 35 35 35 33 32 32 32 32 33 35 37 38 39 40 40 40 40 40 40 40 42 46 48 49 50 51 52 53 53
41 41 42 42 41 41 41 41 40 39 39 37 37 36 35 34 33 32 32 33 34 34 33 32 31 29 28 26 25 24 24 23 23 23 23 23 23 23 24 25 26 26 26 27 27 27 28 28 28 28 28 27 27 26 26 25 24 24 23 23 23 23 23 23 23 23 23 24 25 27 29 32 34 35 36 35 34 33 31 31 32 33 34 36 38 39 41 41 41 41 41 40 40 41 43 46 48 50 51 52 53 53 52
41 41 42 42 41 40 40 39 39 38 38 37 36 36 35 34 34 34 34 34 35 34 34 33 32 31 29 27 26 26 25 25 25 25 25 25 25 26 27 28 28 29 29 29 30 30 30 30 30 30 29 29 29 28 28 27 26 26 25 25 24 24 24 24 24 24 25 26 28 30 32 34 35 35 35 35 33 32 31 32 32 34 36 38 40 42 43 43 43 43 42 42 42 42 43 46 49 52 53 53 54 53 52
41 41 41 40 40 39 38 37 37 37 37 36 36 35 35 34 35 35 35 36 36 36 35 35 34 32 30 29 28 28 27 27 27 27 28 28 29 30 31 31 32 32 32 32 32 31 31 31 30 30 30 29 29 29 28 28 27 27 27 26 26 26 26 26 27 27 29 30 32 33 35 35 36 36 35 34 34 33 33 33 35 36 38 41 43 44 46 46 46 46 45 45 45 45 45 46 49 52 55 55 55 54 52
40 40 40 39 38 37 36 36 35 35 35 35 34 34 34 34 35 36 36 37 37 37 37 36 35 33 31 30 30 29 29 29 30 31 32 32 33 34 34 34 34 34 34 33 32 31 31 30 30 30 30 30 30 30 29 29 28 28 28 28 28 28 28 29 30 31 32 34 35 36 36 36 36 36 35 34 34 34 35 36 38 40 42 44 46 48 49 50 49 49 48 48 48 48 48 48 49 51 53 55 55 54 53
40 39 39 38 37 36 35 35 34 34 34 34 33 33 33 34 35 36 37 38 38 39 38 37 35 33 32 32 32 32 32 33 34 35 36 36 36 37 37 36 36 36 35 34 33 32 31 31 31 31 32 31 31 31 30 30 30 30 30 30 30 30 31 32 33 34 35 36 36 37 37 37 37 36 36 36 36 37 38 40 42 44 46 48 50 51 53 53 53 53 52 52 51 51 51 51 52 52 53 54 55 55 54
39 39 39 38 37 36 35 35 34 34 34 33 33 32 32 33 34 36 37 38 39 39 39 37 36 34 33 34 34 35 36 37 38 39 40 40 40 40 39 39 38 37 36 35 34 33 32 32 32 32 33 32 32 31 31 31 31 31 31 32 32 33 33 34 35 35 36 36 36 37 37 37 37 38 38 38 39 40 42 43 45 47 50 52 54 55 56 57 58 58 57 55 55 55 56 56 55 55 55 55 55 56 55
38 39 39 39 38 37 36 35 35 34 34 34 34 33 32 33 34 35 36 38 39 40 39 37 35 35 36 37 38 38 39 40 41 42 43 43 43 42 41 40 39 38 37 36 35 34 34 34 34 34 33 33 32 32 32 32 33 33 33 34 34 34 34 34 35 35 35 36 36 36 36 37 38 38 39 40 42 43 45 47 49 51 53 55 57 58 59 61 62 62 61 59 60 62 62 60 59 58 57 56 56 56 55
37 38 39 38 38 37 37 36 36 35 35 35 34 34 33 33 34 35 36 37 39 39 38 36 36 36 38 39 40 41 42 43 44 44 45 45 44 44 43 42 41 39 38 37 36 36 36 36 35 35 34 34 33 33 33 34 34 35 35 35 35 35 34 34 34 34 35 35 35 35 36 37 38 39 40 42 43 45 47 49 51 53 56 58 60 61 62 64 65 65 64 64 66 67 66 63 62 60 59 58 57 56 55
36 37 37 37 38 38 37 37 37 37 37 36 36 35 34 34 34 35 36 38 39 38 37 36 37 38 39 41 42 43 44 45 46 46 47 47 46 45 44 42 41 40 39 39 38 38 38 37 37 36 35 35 34 34 34 35 35 35 36 36 36 35 34 34 34 34 34 34 35 35 36 37 39 40 41 43 44 46 48 50 53 55 57 60 62 63 65 66 67 67 68 69 69 68 66 64 63 62 61 60 58 56 55
36 36 37 37 37 38 38 38 38 38 39 38 37 36 36 36 36 37 38 40 40 39 37 37 38 40 41 42 43 44 45 47 48 49 49 49 47 46 44 43 42 41 41 41 40 40 39 39 38 37 37 36 35 35 35 35 36 36 36 36 36 35 35 35 35 35 35 35 36 36 37 39 41 42 44 45 46 47 49 51 53 56 58 60 62 64 66 67 68 69 70 70 69 67 65 64 63 62 61 60 59 57 55
38 38 38 38 38 38 39 39 39 40 41 41 40 39 39 39 39 40 41 41 40 39 38 39 40 42 44 44 45 46 48 50 51 52 52 50 49 47 46 45 45 45 44 44 43 42 41 40 40 39 38 37 36 36 36 36 36 36 36 36 36 36 36 36 36 36 36 37 37 38 39 41 43 45 47 48 49 49 50 51 53 55 58 59 61 63 65 67 68 70 70 69 68 67 65 64 62 61 61 60 59 58 57
42 41 41 40 40 40 40 41 42 43 44 44 43 42 42 42 42 43 44 42 41 39 39 41 43 45 47 48 49 50 51 53 54 55 54 52 51 50 50 50 50 49 48 46 46 45 44 43 42 41 39 38 37 36 36 36 36 36 36 37 37 38 38 38 38 38 38 39 39 40 42 44 45 47 49 50 51 51 51 51 52 54 56 57 59 60 62 65 67 70 70 69 68 67 66 63 61 60 59 58 58 59 59
48 47 46 45 44 43 43 44 45 46 47 46 46 45 44 45 46 46 46 44 43 42 43 45 47 48 49 51 52 53 54 55 56 56 55 54 53 53 54 54 53 53 51 50 49 48 46 45 44 42 41 40 39 38 37 37 36 36 37 38 39 40 40 40 40 40 40 41 42 43 45 47 48 49 50 50 51 51 51 51 51 52 53 55 57 58 60 63 66 68 70 70 69 68 66 63 60 60 61 62 62 62 61
54 53 51 50 48 47 46 47 48 48 49 48 48 47 47 48 49 50 49 47 46 46 47 50 51 52 52 52 53 54 55 57 58 58 56 56 56 56 56 56 56 55 54 54 53 51 50 48 47 45 43 42 42 41 40 39 38 37 37 38 40 41 42 42 42 42 42 42 43 45 47 49 50 51 51 50 50 50 50 50 51 51 52 54 56 58 60 63 65 68 70 70 70 68 66 65 65 66 68 67 65 63 62
57 56 55 53 51 50 49 49 50 51 51 51 51 51 52 53 53 52 50 49 49 50 52 53 55 56 56 55 54 55 56 58 59 59 58 57 57 58 58 57 57 57 57 57 57 55 53 51 49 47 46 46 46 45 44 42 40 38 38 39 40 41 42 42 43 43 43 43 44 46 48 50 52 53 52 52 52 52 52 53 52 52 52 53 55 57 60 63 66 69 71 71 70 69 68 68 69 70 69 67 65 63 61
60 58 57 55 53 52 51 51 52 53 54 55 56 56 57 57 56 54 52 51 51 53 54 56 57 58 58 58 57 57 58 59 60 61 60 59 59 58 59 59 59 59 60 60 59 58 56 54 52 51 50 50 49 48 47 44 42 40 39 39 39 41 42 43 44 44 44 43 44 45 47 50 52 53 53 54 55 56 57 56 55 54 53 53 54 56 58 62 66 70 72 71 70 70 69 70 69 68 66 64 63 61 60
63 61 59 56 55 53 53 53 55 56 58 60 61 61 61 59 57 55 54 53 54 55 56 57 58 59 59 60 60 60 60 61 62 62 62 61 60 59 59 60 62 62 62 61 60 59 59 57 56 55 54 54 52 51 49 46 43 41 39 39 40 41 42 43 44 45 45 44 44 45 46 48 50 52 53 56 58 60 60 59 57 55 53 53 54 56 58 63 68 71 72 71 70 69 69 69 67 65 62 60 58 57 57
68 65 63 60 59 58 57 58 60 61 64 65 66 64 62 60 58 56 55 56 56 57 57 58 59 60 61 62 63 63 63 64 63 63 63 62 61 60 60 60 61 63 64 64 63 63 62 63 62 61 59 58 56 55 52 49 45 42 40 40 40 41 43 44 45 45 46 45 45 45 46 47 48 50 52 56 59 61 61 59 56 54 53 53 54 57 61 66 70 71 71 70 69 68 67 66 64 60 58 56 55 54 53
74 71 69 67 65 64 65 65 66 67 67 68 67 66 63 60 58 57 57 57 58 58 58 59 61 62 64 65 65 66 65 65 64 64 63 63 62 61 60 60 60 61 64 65 67 68 69 68 67 66 64 63 61 59 56 51 47 43 41 41 41 42 44 45 46 46 46 46 46 47 47 48 48 50 52 54 57 59 58 56 54 53 52 54 56 60 64 68 70 71 70 69 68 67 66 63 60 58 57 56 54 53 51
79 77 74 73 72 71 71 71 70 69 68 68 67 65 62 60 58 58 58 59 60 60 61 62 64 65 67 67 67 67 66 65 64 64 64 62 61 60 60 61 62 64 66 68 70 72 74 74 73 71 70 69 66 63 58 53 48 44 42 41 42 43 45 47 48 48 48 48 49 49 50 50 50 51 52 53 55 56 56 54 52 51 52 54 57 61 65 67 69 70 70 69 67 66 64 62 60 59 58 56 54 51 49
80 79 77 75 75 74 74 73 71 69 67 66 65 63 61 60 60 60 61 62 63 64 65 66 67 68 68 68 68 67 65 64 63 63 63 63 61 60 60 62 64 66 68 70 73 75 77 77 77 76 76 73 70 66 59 53 49 46 45 44 44 45 47 49 50 51 50 50 51 52 52 52 52 52 52 53 54 54 54 52 51 51 52 54 56 60 63 66 68 68 68 67 66 64 63 62 62 61 58 55 51 48 45
80 78 77 75 74 73 72 71 69 67 66 64 64 63 63 63 63 64 65 66 67 68 69 69 69 69 68 67 66 65 64 63 63 63 63 63 63 62 62 64 66 68 69 71 73 76 78 78 79 79 78 76 72 67 60 54 50 49 49 48 48 49 51 53 53 53 53 53 54 54 54 54 53 53 52 53 53 53 53 52 52 52 53 54 56 58 61 63 64 64 64 64 64 64 63 64 63 60 56 51 47 43 39